Location: Oberkirch
(48.5323°N, 8.0787°E)
Time: 14:50:01
(UTC+00:00)

SR - Pass Details

Date: 18 February 2026
Orbit: 573 x 848 km, 66.7° (Epoch: 7 March)

Event Time Altitude Azimuth Distance (km) Brightness Sun altitude
Exits shadow 02:58:12 15° 93° (E) 1,607 ? -35.1°
Drops below altitude 10° 03:00:00 10° 69° (ENE) 1,948 ? -34.9°
Sets 03:03:01 0° 49° (NE) 2,901 ? -34.4°
